Location: Unspecified
(0.0000°N, 0.0000°E)
Time: 17:21:07
(UTC+00:00)

Vanguard 3 - Pass Details

Date: 04 February 2023
Orbit: 509 x 3249 km, 33.3° (Epoch: 20 March)

Event Time Altitude Azimuth Distance (km) Brightness Sun altitude
Rises 04:15:22 0° 290° (WNW) 7,211 - -28.3°
Reaches altitude 10° 04:20:49 10° 284° (WNW) 6,116 - -27.0°
Exits shadow 04:29:36 29° 265° (W) 4,409 10.3 -24.9°
Maximum altitude 04:37:52 43° 219° (SW) 3,308 10.0 -23.0°
Drops below altitude 10° 04:49:24 10° 151° (SSE) 4,191 11.4 -20.2°
Sets 04:52:24 0° 143° (SE) 4,845 12.0 -19.5°
